Temperature
18 18 18 18 18 18 18 18 18 18 18 18 18 18 18 18 18 18 18 18 18 18 18 18 18 18 17 17 17 17 17 17 17 17 17 17 17 16 16 16 16 16 16
18 18 18 18 18 18 18 18 18 18 18 18 18 18 18 18 18 18 18 18 18 18 18 18 18 17 17 17 17 17 17 17 17 17 17 17 17 16 16 16 16 16 16
18 18 18 18 18 18 18 18 18 18 18 18 18 18 18 18 18 18 18 18 18 18 17 18 17 17 17 17 17 17 17 17 17 17 17 17 17 16 16 16 16 16 16
18 18 18 18 18 18 18 18 18 18 18 18 18 18 18 18 18 18 18 18 18 18 18 18 17 17 17 17 17 17 17 17 17 17 17 17 17 16 16 16 16 16 16
18 18 18 18 18 18 18 18 18 18 18 18 18 18 18 18 18 18 18 18 18 18 18 18 18 17 17 17 17 17 17 17 17 17 17 17 16 16 16 16 16 16 16
18 18 18 18 18 18 18 18 18 18 18 18 18 18 18 18 18 18 18 18 17 17 18 18 17 17 17 17 17 17 17 17 17 17 17 16 16 16 16 16 16 16 16
18 18 18 18 18 18 18 18 18 18 18 18 18 18 18 18 17 17 17 17 17 17 17 17 17 17 17 17 17 17 17 17 17 17 17 16 16 16 16 16 16 16 16
18 18 18 18 18 18 18 18 18 18 18 18 18 18 17 17 17 17 17 17 17 17 17 17 17 17 17 17 17 17 17 17 17 17 17 16 16 16 16 16 16 16 15
18 18 18 18 18 18 18 18 18 18 18 17 17 17 17 17 17 17 17 17 17 17 17 17 17 17 17 17 17 17 17 17 17 17 16 16 16 16 16 16 16 16 15
18 18 18 18 18 18 18 18 18 17 17 17 17 17 17 17 17 17 17 17 17 17 17 17 17 17 17 17 17 17 17 16 16 16 16 16 16 16 16 16 16 15 15
18 18 18 18 18 18 18 18 17 17 17 17 17 17 17 17 17 17 16 17 17 16 16 16 16 16 16 16 16 16 16 16 16 16 16 16 16 16 16 16 15 15 15
18 18 18 18 18 17 17 17 17 17 17 17 17 17 17 17 17 17 16 16 16 16 16 16 16 16 16 16 16 16 16 16 16 16 16 16 16 15 15 15 15 15 15
18 18 18 17 17 17 17 17 17 17 17 17 17 17 17 17 16 16 16 16 16 16 16 16 16 16 16 16 16 16 16 16 15 15 15 15 15 15 15 15 15 15 15
18 18 18 17 17 17 17 17 17 17 17 17 17 17 17 16 16 16 16 16 16 15 15 15 15 15 15 15 15 15 15 15 15 15 15 15 15 15 14 14 14 14 14
18 17 17 17 17 17 17 17 17 17 17 17 17 17 16 16 16 16 16 16 16 15 15 15 15 15 15 15 15 15 15 15 15 14 14 14 14 14 14 14 14 14 14
17 17 17 17 17 17 17 17 17 17 16 16 16 16 16 16 16 16 16 15 15 15 15 15 15 15 15 15 14 14 14 14 14 14 14 14 14 14 14 14 14 13 13
17 17 17 17 17 17 17 17 17 16 16 16 16 16 16 16 16 16 15 15 15 15 15 15 14 14 14 14 14 14 14 14 14 14 13 13 13 13 13 13 13 13 13
17 17 17 17 17 17 17 16 16 16 16 16 16 16 16 16 15 15 15 15 15 15 14 14 14 14 14 14 14 14 14 13 13 13 13 13 13 13 13 13 13 12 12
17 17 17 17 17 16 16 16 16 16 16 16 15 15 15 15 15 15 15 15 15 14 14 14 14 13 13 13 13 13 13 13 13 13 12 12 12 12 12 12 12 12 12
17 17 16 16 16 16 16 16 16 16 16 15 15 15 15 15 15 15 14 14 14 14 14 14 13 13 13 13 13 13 12 12 12 12 12 12 12 12 12 11 11 11 11
17 17 16 16 16 16 16 15 15 15 15 15 15 15 14 14 14 14 14 14 14 14 13 13 13 13 12 12 12 12 12 12 12 12 12 12 11 11 11 11 11 11 11
16 16 16 16 16 16 15 15 15 15 15 15 14 14 14 14 14 14 14 14 13 13 13 13 12 12 12 12 12 12 12 12 11 11 11 11 11 11 11 11 11 10 10
16 16 16 16 16 16 15 15 15 15 15 14 14 14 14 13 13 13 13 13 13 13 13 12 12 12 12 12 12 12 12 12 11 11 11 11 11 11 11 10 10 10 10
16 16 16 15 15 15 15 15 14 14 14 14 14 14 13 13 13 13 13 13 13 12 12 12 12 12 12 12 12 12 11 11 11 11 11 11 11 10 10 10 10 10 10
15 15 15 15 15 15 15 14 14 14 14 13 13 13 13 13 13 13 13 13 12 12 12 12 12 11 11 11 11 11 11 11 11 10 10 10 10 10 10 10 10 10 9
15 15 15 15 15 14 14 14 14 14 13 13 13 13 12 12 12 12 12 12 12 12 12 11 11 11 11 11 11 11 11 10 10 10 10 10 10 10 10 10 9 9 9
Wind_Speed
4 4 3 4 4 4 4 3 4 3 3 4 4 4 4 5 7 9 11 16 17 17 17 17 16 16 16 15 15 15 14 14 14 13 13 13 13 13 12 12 11 11 11
4 3 3 2 3 4 5 4 3 2 2 2 2 4 4 5 7 9 11 14 17 17 17 17 17 17 17 16 16 15 15 15 14 14 14 14 14 14 13 13 13 13 12
5 4 3 3 3 4 4 3 2 2 1 1 2 3 3 5 6 8 10 11 13 16 17 17 18 18 18 17 17 16 16 16 16 16 16 15 15 15 15 14 14 14 13
6 4 3 2 3 3 2 2 2 1 1 1 1 1 2 2 4 6 8 9 10 11 13 16 17 18 18 17 17 17 16 16 16 16 16 16 16 15 15 15 15 15 15
6 4 3 2 3 2 2 3 2 2 2 1 2 1 1 1 2 4 5 7 9 9 10 13 15 17 18 18 17 17 17 16 16 16 16 16 16 15 16 16 16 16 16
5 4 3 3 2 2 1 1 2 2 2 2 2 1 1 2 2 2 4 5 7 8 9 9 11 13 16 16 16 17 17 17 16 16 16 16 16 16 16 17 17 16 16
5 4 2 2 2 2 3 2 2 2 1 1 1 1 2 1 1 2 2 2 3 5 7 7 8 8 10 14 16 17 17 16 16 16 16 16 16 17 17 16 16 16 15
4 4 3 3 2 2 2 2 2 1 1 1 2 1 1 3 2 1 1 2 3 3 3 5 7 7 7 7 10 13 14 14 15 14 13 14 14 15 16 16 16 16 15
3 3 4 4 3 3 2 2 3 3 2 1 2 3 3 3 1 2 1 1 1 2 2 3 4 5 6 6 6 8 11 12 12 13 13 12 12 13 13 14 13 14 16
2 2 3 3 3 3 3 3 3 3 3 2 1 2 2 3 2 1 2 1 1 2 2 2 3 4 5 6 6 7 9 10 11 12 11 11 10 10 11 11 12 12 12
1 2 2 2 3 3 3 3 2 3 3 3 3 2 1 1 2 3 2 2 1 1 2 2 2 3 5 6 6 7 8 8 9 10 10 10 10 10 10 11 11 11 10
1 1 1 1 2 2 3 3 3 3 3 3 3 2 2 2 2 3 3 2 2 2 1 1 2 3 4 5 6 6 7 8 8 8 8 8 7 7 8 9 9 8 8
1 1 1 1 2 2 3 2 2 2 3 3 3 2 2 2 2 3 3 2 2 1 1 1 1 2 3 4 5 6 6 6 6 6 6 6 6 5 5 5 6 7 7
2 2 1 1 1 1 2 2 1 2 1 1 2 2 2 2 2 3 3 3 1 1 1 2 1 1 2 3 4 5 4 5 6 6 6 5 5 3 3 3 3 4 4
1 1 1 1 1 1 2 2 1 1 1 1 1 1 1 1 1 2 2 3 3 2 2 2 1 1 2 3 4 4 4 5 6 7 7 6 5 4 4 3 3 3 3
1 2 1 2 2 1 2 2 1 1 1 1 1 1 0 0 0 0 1 1 2 3 2 2 2 1 1 2 4 4 5 5 6 7 7 6 6 5 4 4 4 3 3
2 2 2 2 2 2 2 2 1 1 2 1 1 2 1 0 1 1 0 1 1 2 2 2 1 0 1 1 2 3 4 4 4 5 6 6 5 4 4 4 4 3 3
2 2 2 2 2 2 2 2 2 1 2 2 1 2 2 1 2 1 1 1 0 1 2 2 1 0 1 2 2 2 3 3 4 5 6 6 5 5 5 5 5 5 4
2 1 2 2 2 2 1 1 2 2 2 2 2 2 2 2 2 2 2 1 1 1 1 2 1 1 1 1 2 2 2 2 3 4 5 5 5 5 6 6 6 6 5
2 2 2 2 2 2 1 1 2 2 2 2 2 2 2 2 2 2 2 2 2 2 2 2 2 1 1 1 2 2 2 1 2 3 4 4 4 5 5 6 6 6 6
3 2 3 2 2 2 1 1 2 2 2 2 2 2 3 4 4 3 2 2 2 2 2 2 2 1 1 1 1 2 2 1 1 1 1 1 2 2 2 3 4 5 6
2 3 2 2 2 1 2 3 3 3 2 2 2 2 3 4 4 4 4 3 3 3 2 2 1 1 1 1 1 2 2 2 1 1 2 1 2 1 2 4 5 5 6
2 3 2 3 2 2 3 3 4 3 3 2 2 2 2 2 3 2 3 4 3 3 3 3 2 2 2 2 2 2 2 2 2 2 2 1 1 2 3 4 6 6 7
3 2 3 3 2 2 3 4 5 4 3 2 2 3 3 2 2 2 2 3 3 2 1 1 2 2 2 2 2 3 3 2 1 1 2 2 1 2 2 4 6 8 8
2 2 3 3 3 1 3 4 5 3 3 2 1 2 2 2 2 3 3 3 3 3 3 2 3 2 3 3 4 3 2 2 1 1 0 2 1 1 1 2 5 7 8
2 3 3 3 3 2 2 4 5 3 3 2 1 1 2 2 2 3 3 2 1 2 2 3 3 3 2 2 3 3 3 3 1 1 1 2 1 1 1 2 2 4 6
Wind_Direction
158 167 181 189 199 196 195 204 216 227 216 212 202 188 185 178 177 178 184 191 193 193 192 190 190 192 193 194 196 197 197 198 198 197 198 200 200 200 201 201 202 204 204
163 158 165 177 202 202 198 196 202 204 205 203 201 191 190 186 186 181 185 192 199 200 199 198 198 199 200 202 203 203 204 205 205 204 204 206 207 207 208 208 209 210 210
165 158 160 174 199 201 193 184 185 180 197 204 212 200 195 193 187 185 185 189 197 203 205 206 206 206 206 207 209 209 210 210 211 210 210 211 213 213 214 215 216 216 215
166 158 164 188 208 191 171 165 169 166 209 207 227 236 208 188 186 188 186 190 195 203 209 212 213 213 212 211 212 213 214 215 215 215 215 216 217 218 218 219 221 220 220
170 162 177 198 194 176 179 188 167 173 187 211 227 240 225 204 201 194 195 197 197 202 206 213 218 220 219 217 216 217 217 218 218 218 218 219 220 221 222 223 224 223 224
173 166 183 196 178 157 175 173 170 174 185 200 224 238 249 229 210 204 204 196 198 204 208 212 215 220 218 219 219 219 219 219 220 221 223 224 223 224 225 226 226 226 227
173 168 178 183 180 178 189 182 169 175 213 158 96 2 345 322 225 224 204 179 187 195 195 204 208 212 220 225 224 224 223 223 225 227 229 228 227 227 227 226 225 224 224
182 180 170 175 181 175 176 180 157 158 225 154 138 114 351 342 335 268 196 185 194 185 185 201 201 206 215 216 218 221 224 226 229 228 227 226 226 227 227 227 225 223 222
187 184 181 176 175 164 178 193 177 165 195 228 162 149 160 220 282 326 293 195 184 190 209 205 203 202 204 205 209 218 222 223 224 223 221 220 222 223 224 226 227 228 227
181 186 187 181 183 177 190 209 189 178 169 203 235 208 177 166 172 265 315 291 204 191 208 216 197 192 198 193 198 205 209 212 218 222 223 221 221 222 223 226 228 227 225
218 203 194 178 185 187 196 201 185 182 183 192 199 203 202 188 171 183 248 281 297 252 212 212 204 191 201 199 196 199 204 209 215 217 220 221 222 226 227 229 230 228 225
265 247 190 168 184 191 197 205 197 194 201 200 197 189 181 189 203 185 210 236 250 262 216 199 212 199 198 204 201 201 202 206 212 216 216 214 216 221 225 229 228 226 219
233 246 212 192 196 206 203 198 197 211 206 204 209 213 208 215 200 186 181 208 225 260 273 241 227 196 200 194 198 203 203 196 195 198 201 207 208 211 216 218 219 219 222
214 217 187 187 193 186 180 170 192 222 200 208 223 214 208 226 206 191 180 176 205 271 272 261 257 201 185 176 177 185 182 176 185 186 187 186 179 173 183 192 206 210 218
168 150 155 154 159 148 140 137 144 220 170 186 209 193 192 227 214 205 181 172 172 211 259 259 256 224 185 164 166 167 166 163 168 172 172 162 160 161 156 145 142 140 138
108 112 100 117 116 110 117 118 118 107 105 92 102 83 56 269 299 89 158 166 169 181 228 251 242 226 181 156 151 145 149 146 158 163 167 167 169 170 164 151 139 133 129
121 123 123 117 114 111 108 100 96 98 97 71 65 74 34 75 50 26 88 116 150 165 204 274 281 257 122 129 126 125 132 129 133 150 164 166 168 169 159 144 132 126 127
137 141 136 123 120 111 110 116 110 88 100 90 78 75 43 59 59 53 71 67 107 183 173 200 259 212 147 152 143 140 131 130 126 128 138 139 140 141 141 137 133 130 127
137 119 122 122 112 103 94 96 107 94 96 100 93 95 81 76 56 43 58 58 45 68 133 161 176 138 108 116 107 105 99 100 120 118 123 127 129 131 132 131 130 126 121
132 117 110 110 105 98 86 71 80 91 91 88 85 89 88 95 91 75 71 65 80 80 86 107 121 109 106 93 111 125 113 90 113 112 118 123 125 134 137 139 140 140 139
127 123 109 95 87 87 78 104 112 107 105 96 79 75 80 85 84 78 87 90 93 93 92 100 106 101 120 127 156 170 157 150 111 127 127 138 134 141 169 173 165 160 155
104 98 101 99 81 68 74 107 117 113 107 106 95 65 67 69 66 62 71 82 103 117 124 122 125 145 198 197 179 168 162 143 216 219 153 211 169 206 218 207 199 187 178
131 120 112 103 96 68 93 113 119 118 112 120 120 102 76 64 61 61 50 47 55 71 115 146 158 195 198 207 173 161 177 175 198 193 145 206 214 228 235 222 212 204 198
151 143 129 126 117 83 98 114 114 103 98 103 111 119 110 75 55 72 78 57 40 23 23 150 178 208 196 185 178 183 182 157 75 87 139 177 219 235 244 227 220 215 212
142 147 146 142 128 94 93 114 116 104 98 89 87 98 110 99 48 85 91 75 43 360 5 66 95 109 115 126 128 102 98 100 67 296 181 147 206 253 278 262 237 224 217
152 146 143 143 138 134 107 116 122 118 110 97 64 63 94 101 71 94 106 104 69 323 359 33 38 42 56 79 122 146 157 148 144 239 243 150 160 117 329 291 249 232 226
Height
1544 1544 1545 1546 1546 1547 1548 1549 1549 1550 1550 1551 1551 1551 1551 1552 1552 1552 1553 1554 1555 1556 1557 1558 1559 1559 1560 1561 1562 1563 1564 1565 1566 1566 1567 1568 1569 1570 1570 1571 1572 1573 1573
1544 1544 1545 1546 1547 1547 1548 1549 1549 1549 1550 1550 1550 1551 1551 1551 1551 1552 1552 1553 1554 1555 1556 1557 1558 1558 1559 1560 1561 1562 1563 1564 1564 1565 1566 1566 1567 1568 1569 1569 1570 1571 1571
1544 1545 1545 1546 1546 1547 1548 1549 1549 1549 1549 1550 1550 1550 1550 1550 1551 1551 1552 1552 1553 1554 1555 1556 1556 1557 1558 1559 1559 1560 1561 1562 1563 1563 1564 1565 1565 1566 1567 1567 1568 1568 1569
1544 1545 1545 1546 1546 1547 1547 1548 1548 1548 1549 1549 1549 1549 1549 1550 1550 1550 1551 1551 1552 1552 1553 1554 1554 1555 1556 1557 1557 1558 1559 1559 1560 1561 1562 1562 1563 1563 1564 1564 1565 1566 1566
1544 1544 1544 1545 1546 1546 1546 1547 1547 1547 1548 1548 1548 1548 1548 1549 1549 1549 1549 1550 1550 1551 1551 1552 1552 1553 1554 1554 1555 1555 1556 1557 1558 1558 1559 1559 1560 1560 1561 1562 1562 1563 1563
1543 1543 1543 1544 1545 1545 1545 1546 1546 1546 1547 1547 1547 1547 1547 1548 1548 1548 1548 1548 1548 1549 1549 1549 1550 1551 1551 1552 1552 1553 1553 1554 1555 1555 1556 1556 1557 1557 1557 1558 1559 1559 1560
1542 1542 1542 1543 1543 1543 1544 1544 1545 1545 1545 1546 1546 1546 1546 1546 1546 1546 1546 1546 1546 1547 1547 1547 1547 1548 1549 1549 1550 1550 1551 1551 1552 1552 1552 1553 1553 1554 1554 1554 1555 1556 1556
1540 1541 1541 1541 1542 1542 1542 1543 1543 1543 1544 1544 1544 1544 1545 1546 1544 1545 1545 1544 1544 1545 1545 1545 1545 1545 1546 1546 1546 1547 1548 1548 1548 1548 1549 1549 1549 1550 1550 1551 1551 1552 1552
1539 1539 1539 1540 1540 1540 1541 1541 1541 1541 1542 1542 1543 1543 1543 1542 1543 1543 1542 1542 1542 1542 1542 1543 1543 1543 1543 1543 1543 1543 1544 1544 1545 1545 1545 1545 1545 1546 1546 1547 1548 1548 1549
1538 1538 1538 1538 1538 1538 1538 1539 1539 1539 1540 1540 1541 1541 1541 1541 1541 1540 1541 1540 1540 1540 1540 1540 1540 1540 1541 1541 1540 1541 1541 1542 1542 1542 1542 1542 1542 1542 1543 1543 1544 1544 1545
1537 1536 1536 1536 1536 1536 1536 1537 1537 1537 1537 1538 1538 1538 1538 1538 1538 1538 1537 1537 1538 1538 1538 1538 1538 1538 1538 1538 1538 1538 1538 1538 1538 1538 1538 1538 1538 1539 1539 1540 1540 1541 1541
1535 1535 1535 1534 1534 1534 1534 1534 1535 1535 1535 1535 1536 1536 1536 1536 1535 1535 1535 1534 1534 1535 1535 1535 1535 1535 1535 1535 1535 1535 1535 1535 1535 1535 1535 1535 1535 1536 1536 1536 1537 1537 1538
1533 1533 1533 1533 1533 1533 1532 1532 1532 1533 1533 1533 1533 1533 1533 1533 1533 1532 1532 1532 1532 1532 1532 1532 1532 1532 1533 1533 1532 1532 1532 1532 1532 1532 1532 1532 1533 1533 1533 1533 1534 1534 1534
1532 1532 1532 1531 1531 1531 1531 1531 1530 1530 1530 1530 1530 1530 1530 1530 1530 1529 1529 1529 1529 1529 1529 1529 1529 1530 1530 1530 1530 1530 1529 1530 1529 1529 1529 1530 1530 1530 1530 1530 1530 1530 1530
1531 1531 1530 1530 1530 1530 1529 1529 1529 1528 1528 1528 1528 1528 1528 1527 1527 1526 1526 1526 1527 1525 1525 1526 1526 1526 1527 1527 1527 1527 1527 1527 1527 1526 1527 1526 1527 1527 1527 1527 1527 1527 1527
1530 1530 1529 1529 1529 1528 1528 1528 1527 1527 1526 1526 1526 1525 1525 1525 1525 1524 1524 1524 1524 1524 1523 1522 1523 1524 1524 1524 1523 1523 1524 1524 1524 1524 1524 1524 1524 1524 1524 1524 1524 1524 1524
1529 1529 1528 1528 1527 1527 1527 1527 1526 1525 1525 1524 1524 1524 1523 1523 1522 1522 1522 1521 1521 1521 1520 1520 1521 1521 1521 1521 1521 1521 1521 1521 1521 1522 1522 1522 1522 1522 1522 1522 1522 1522 1522
1528 1527 1527 1527 1526 1526 1526 1525 1525 1524 1524 1523 1522 1522 1521 1521 1520 1520 1520 1519 1519 1519 1519 1518 1518 1519 1519 1519 1519 1519 1519 1520 1520 1520 1520 1520 1520 1520 1520 1520 1520 1520 1520
1527 1526 1526 1525 1525 1525 1525 1524 1524 1523 1522 1522 1521 1521 1520 1519 1518 1518 1518 1517 1517 1517 1517 1516 1516 1516 1517 1517 1517 1517 1518 1518 1518 1518 1518 1518 1518 1518 1518 1518 1518 1519 1519
1526 1525 1525 1524 1524 1524 1523 1523 1523 1522 1521 1520 1520 1519 1519 1518 1517 1517 1516 1515 1515 1515 1515 1514 1514 1515 1515 1516 1516 1516 1516 1516 1516 1516 1517 1517 1517 1517 1517 1517 1517 1517 1517
1524 1524 1524 1523 1523 1522 1522 1522 1521 1520 1519 1519 1518 1518 1517 1517 1516 1516 1515 1514 1513 1513 1513 1513 1513 1513 1514 1514 1514 1515 1515 1515 1515 1516 1516 1516 1517 1517 1517 1517 1517 1516 1517
1523 1523 1522 1522 1521 1521 1521 1520 1520 1519 1518 1518 1517 1516 1516 1516 1515 1515 1514 1513 1513 1512 1512 1512 1512 1513 1513 1513 1514 1514 1514 1514 1514 1515 1515 1515 1515 1516 1516 1516 1516 1516 1516
1521 1521 1521 1520 1520 1519 1519 1519 1519 1518 1517 1517 1516 1515 1515 1515 1515 1514 1514 1513 1513 1512 1512 1512 1512 1512 1512 1512 1513 1512 1512 1512 1512 1513 1514 1513 1514 1514 1514 1514 1514 1514 1514
1520 1519 1519 1519 1518 1518 1518 1518 1517 1517 1516 1516 1515 1514 1514 1514 1514 1514 1513 1512 1512 1512 1512 1512 1512 1511 1512 1512 1512 1512 1512 1512 1512 1512 1512 1512 1512 1513 1513 1513 1513 1513 1513
1518 1517 1517 1516 1516 1516 1516 1516 1516 1515 1515 1515 1514 1514 1513 1513 1513 1513 1513 1512 1512 1512 1512 1512 1512 1511 1511 1511 1511 1511 1511 1511 1510 1510 1511 1511 1511 1511 1511 1511 1511 1511 1512
1516 1516 1515 1515 1514 1514 1514 1514 1514 1514 1514 1514 1514 1513 1513 1513 1513 1513 1512 1512 1511 1511 1511 1511 1511 1511 1510 1510 1510 1510 1510 1509 1509 1509 1509 1509 1509 1510 1510 1510 1510 1510 1510